星链-2535 (STARLINK-2535 )

导读 | 豆包AI

STARLINK-2535是美国SpaceX公司星链(Starlink)卫星互联网项目的一员,于2021年4月29日发射入轨,属于星链计划的低轨卫星组网卫星。它作为星链星座的组成部分,旨在为全球提供高速低延迟的宽带互联网服务,填补偏远、地形复杂区域的网络覆盖缺口,同时也可支持海事、航空及应急通信等场景,是SpaceX构建全球卫星互联网的重要节点。

基本信息
目录编号:
48295
目录名称:
STARLINK-2535
国际标识:
2021-036V
轨道中心:
EARTH
卫星名称:
星链-2535
卫星全名:
星链-2535 (STARLINK-2535 )
卫星状态:
在轨 (已飞行1780 天)
发射日期:
2021-04-29 UTC
国别 :
美国 (US)
星等 :
--
轨道信息
数据来源 国际轨道数据
星历时间: 2026-03-13T15:48:13+0800
1天前
查看轨道信息
半长轴: 6853.343km
偏心率: 0.0001468
轨道倾角: 53.159°
近地点辐角 95.199°
升交点赤经 58.657°
平近点角 264.918°
近地点: 474.199km
远地点: 476.213km
周期: 94.105分钟
每日圈数: 15.302033
详细信息
固有亮度:
5
最大亮度:
2.5
卫星平台:
Starlink V1.0
覆盖范围:
全球
运营商:
太空探索技术公司
运营商所在国:
美国
制造商(研发单位):
太空探索技术公司
制造商所在国:
美国
使用方式:
暂无
卫星简介
星链(Starlink)计划是由太空探索技术公司(SpaceX)提出的一个巨型低轨卫星互联网星座项目,计划在2019年至2024年间在太空搭建由约1.2万颗卫星组成的“星链”网络,其中1584颗将部署在地球上空550千米处的近地轨道,并从2020年开始工作。该卫星仍在工作。
2D轨道图
3D轨道图
轨道高度分析图
轨道倾角分析图
轨道综合分析图
查看轨道综合分析图